Other Public Products
Issued by NWS Grand Forks, ND

Home | Current Version | Previous Version | Graphics & Text | Print | Product List | Glossary On
Versions: 1 2 3 4 5 6 7 8 9 10 11 12 13 14 15 16 17 18 19 20 21 22 23 24 25 26 27 28 29 30 31 32 33 34 35 36 37 38 39 40 41 42 43 44 45 46 47 48 49 50
000
FPUS83 KFGF 231531
OPUFGF
PRAIRIE TO PINES WEATHER ROUNDUP
NATIONAL WEATHER SERVICE EASTERN NORTH DAKOTA/GRAND FORKS ND
1000 AM CDT SUN APR 23 2017

 **SATELLITE DATA USED TO AUGMENT SKY COVER AT AUTOMATED STATIONS**
 *****  WEATHER ACROSS EASTERN NORTH DAKOTA  *****

CITY           SKY/WX    TMP DP  RH WIND       PRES   REMARKS
GRAND FORKS    CLOUDY    35  24  64 E15       30.21S
GRAND FORKS AF FAIR      33  23  67 E16       30.21S WCI  22
GRAND CITY NWS NOT AVBL
BUXTON           N/A     33  32  99 NE12        N/A  WCI  24
DEVILS LAKE    LGT SNOW  28  26  92 E16       30.17F FOG     WCI  16
FARGO          CLOUDY    37  32  82 NE17      30.14F
WAHPETON ARPT  CLOUDY    43  34  70 E14       30.09F
$$

 *****  WEATHER ACROSS CENTRAL AND WESTERN NORTH DAKOTA  *****

CITY           SKY/WX    TMP DP  RH WIND       PRES   REMARKS
JAMESTOWN      CLOUDY    31  28  89 E15       30.10F WCI  20
BISMARCK       CLOUDY    35  29  78 E23G31    30.03F WCI  23
MINOT          LGT SNOW  28  25  88 E14       30.10F VSB 1   WCI  17
MINOT AFB      MIX PCPN  28  25  86 E14       30.11S FOG     WCI  17
GARRISON         N/A     27  25  92 E23G35    30.05F WCI  12
WILLISTON      CLOUDY    31  24  75 E16G25    30.02F WCI  20
DICKINSON      CLOUDY    29  26  89 E20       29.93F WCI  16
HETTINGER      CLOUDY    32  31  96 E16       29.92R WCI  21
$$

 *****  OTHER OBSERVATIONS NORTHEAST NORTH DAKOTA  *****

CITY           SKY/WX    TMP DP  RH WIND       PRES   REMARKS
WALHALLA       NOT AVBL
LANGDON        FAIR      32  12  43 E23       30.18F WCI  19
CAVALIER         N/A     34  16  47 E12G18    30.23F
GRAFTON        FAIR      34  16  47 E17       30.23F WCI  23
CANDO          NOT AVBL
FORT TOTTEN      N/A     28  27  96 E8        29.95S WCI  20
ROLLA          FAIR      30  10  43 E20G26    30.16F WCI  18
RUGBY          NOT AVBL
 ***** THE ABOVE OBSERVATIONS ARE NON NWS ARE NOT QUALITY
        CONTROLLED AND MAY MIS-REPORT RAIN FOR SNOW...
$$

 *****  OTHER OBSERVATIONS SOUTHEAST NORTH DAKOTA *****

CITY           SKY/WX    TMP DP  RH WIND       PRES   REMARKS
COOPERSTOWN    CLOUDY    30  28  93 E17G25    30.13F WCI  18
VALLEY CITY    MIX PCPN  32  32 100 NE17      30.13F WCI  21
OAKES          NOT AVBL
GWINNER        CLOUDY    39  37  93 MISG      30.06F
SHEYENNE NWR     N/A     37  32  81 E14       29.95S
BUFFALO          N/A     33  31  94 S17         N/A  WCI  21
WYNDMERE         N/A     43  37  81 E13         N/A
 ***** THE ABOVE OBSERVATIONS ARE NON NWS ARE NOT QUALITY
       CONTROLLED AND MAY MIS-REPORT RAIN FOR SNOW...
$$

  *****  WEATHER ACROSS NORTHERN MINNESOTA  *****

CITY           SKY/WX    TMP DP  RH WIND       PRES   REMARKS
FLAG ISLAND    FAIR      30   9  40 CALM      30.26S
WARROAD        FAIR      34  16  47 E17       30.26S WCI  23
ROSEAU         FAIR      34  16  47 E15G22    30.25R WCI  24
HALLOCK        FAIR      36  12  38 E17       30.24F
THF RVR FALLS  NOT AVBL
HALSTAD          N/A     31  28  88 E14         N/A  WCI  21
FOSSTON        FLURRIES  30  25  80 E12       30.17S WCI  21
BAUDETTE       FAIR      31  12  45 NE12      30.24F WCI  22
WASKISH        CLOUDY    30  23  74 E13       30.22F WCI  20
CROOKSTON      CLOUDY    34  27  75 E15       30.21S WCI  24
$$
  *****  WEATHER ACROSS CENTRAL AND WEST MINNESOTA  *****

CITY           SKY/WX    TMP DP  RH WIND       PRES   REMARKS
BEMIDJI        CLOUDY    31  22  67 E12       30.17F WCI  22
PARK RAPIDS    CLOUDY    33  27  78 E14G20    30.14S WCI  23
WADENA         CLOUDY    36  34  93 E12       30.12F
DETROIT LAKES  CLOUDY    36  32  87 E10G17    30.13S
MOORHEAD       CLOUDY    37  32  81 E14       30.14F
FERGUS FALLS   FAIR      43  34  70 E17G23    30.08F
ELBOW LAKE     FAIR      44  37  76 E20G25    30.07S
MORRIS MN      FAIR      50  41  71 E21       30.05S
STAPLES        CLOUDY    37  30  75 E13       30.12F
WHEATON        CLOUDY    46  39  76 E13       30.08F
$$
  *****  WEATHER ELSEWHERE ACROSS MINNESOTA  *****

CITY           SKY/WX    TMP DP  RH WIND       PRES   REMARKS
DULUTH         LGT SNOW  33  31  92 E12       30.17F FOG     WCI  24
INTRNTL FALLS  FAIR      30  13  49 NE9       30.24F WCI  22
ELY            FAIR      30  19  64 E6        30.21S WCI  24
CLOQUET        LGT SNOW  34  30  86 CALM      30.18F VSB 3/4
BRAINERD       CLOUDY    36  32  85 NE14      30.16F
HIBBING        CLOUDY    31  24  75 E10       30.19F WCI  22
ALEXANDRIA     PTSUNNY   44  36  73 E17       30.09F
SAINT CLOUD    CLOUDY    45  38  76 E10G20    30.11F
MINNEAPOLIS    FAIR      55  41  59 NE9       30.09F
$$

  *****  WEATHER ACROSS SOUTH DAKOTA  *****

CITY           SKY/WX    TMP DP  RH WIND       PRES   REMARKS
SIOUX FALLS    FAIR      59  37  44 SW14G20   30.04F
BROOKINGS      FAIR      60  36  40 S13       30.02F
WATERTOWN      FAIR      53  40  61 SE8       30.01F
HURON          FAIR      52  38  58 CALM      30.00S
SISSETON         N/A     45  40  82 E10       30.05F
ABERDEEN       FAIR      47  37  68 E16       30.00F
MITCHELL       FAIR      62  36  37 SW13G24   30.01F
PIERRE         FAIR      56  35  45 S6        29.88F
MOBRIDGE       PTSUNNY   40  33  76 E21G31    29.92F
RAPID CITY     FAIR      51  37  58 S10       29.81F
$$

  *****  SOME WEATHER IN NEARBY STATES *****

CITY           SKY/WX    TMP DP  RH WIND       PRES   REMARKS
GLASGOW MT     CLOUDY    35  31  85 E23G31    29.89F WCI  23
GREAT FALLS MT CLOUDY    43  40  89 W6        29.79S
CHEYENNE WY    FAIR      49  33  54 SW10      29.97F
SCOTTSBLUFF NE FAIR      54  35  48 SE15      29.92F
OMAHA NE       FAIR      58  41  53 S7        30.15F
DES MOINES IA  FAIR      62  35  36 W5        30.15F
DAVENPORT IA     N/A     61  33  35 W7        30.15F
CHICAGO IL     FAIR      60  28  29 W5        30.13F
EAU CLAIRE WI  FAIR      52  39  61 NE10      30.09S
LA CROSSE WI   FAIR      62  39  42 VRB3      30.10S
$$

  *****  SOME NATIONAL WEATHER *****

CITY           SKY/WX    TMP DP  RH WIND       PRES   REMARKS
LA GUARDIA NY  FAIR      55  35  47 NE6       30.13R
RALEIGH NC     RAIN      53  51  93 NE9       30.06R FOG
ATLANTA GA     LGT RAIN  63  62  97 SE10      29.82F FOG
NEW ORLEANS LA CLOUDY    62  58  86 NW12      29.94R
OKLAHOMA CITY  FAIR      56  41  57 N7        30.20S
ALBUQUERQUE NM FAIR      50  29  44 CALM      30.23S
SALT LAKE CITY FAIR      56  32  40 SE5       29.85F
LOS ANGELES CA FAIR      63  55  75 W5        29.88R
BOISE ID       PTSUNNY   50  42  74 W3        29.86R
SEATTLE WA     CLOUDY    49  44  83 SE5       29.90F
$$

*** WEATHER ACROSS MANITOBA...SASKATCHEWAN AND ONTARIO ***
                ***ONTARIO***

CITY           SKY/WX    TMP DP  RH WIND       PRES   REMARKS
GERALDTON      PTSUNNY   21   9  58 NW13      30.21S WCI   9
THUNDER BAY    PTSUNNY   34  16  47 NW7       30.24S
SIOUX LOOKOUT  PTSUNNY   25   5  42 NE5       30.25F WCI  19
TORONTO        MOSUNNY   57  36  44 SW6       30.09S
BIG TROUT LK   MOSUNNY   10   1  67 NW14      30.25F WCI  -5
PICKLE LAKE    PTSUNNY   16   3  57 NW8       30.24S WCI   5
DRYDEN         SUNNY     27   9  46 N10       30.24F WCI  17
KENORA         PTSUNNY   27   9  46 E8        30.25F WCI  18
$$
                *** MANITOBA***

CITY           SKY/WX    TMP DP  RH WIND       PRES   REMARKS
BRANDON        CLOUDY    30  12  47 SE13      30.22S WCI  20
DAUPHIN        SUNNY     34  19  55 VRB2      30.24S
ISLAND LAKE    MOSUNNY   16   0  48 W5        30.31F WCI   9
PILOT MOUND      N/A     32  12  43 E18G25      N/A  WCI  20
THE PAS        MOSUNNY   23   7  50 N6        30.30F WCI  16
THOMPSON       MOSUNNY   12  -6  44 N6        30.32F WCI   3
WINNIPEG       PTSUNNY   32  19  59 SE9       30.28S WCI  24
LYNN LAKE      MOSUNNY   10  -4  52 VRB2      30.29F
CHURCHILL      MOSUNNY    0  -6  78 NW14      30.33R WCI -19
GILLAM         MOSUNNY    5  -8  56 W8        30.33F WCI  -8
$$
                ***SASKATCHEWAN***

CITY           SKY/WX    TMP DP  RH WIND       PRES   REMARKS
ESTEVAN        CLOUDY    30  16  55 E18G31    30.09F WCI  18
KINDERSLEY     CLOUDY    36  30  80 E24G31    29.91F
LLOYDMINSTER   CLOUDY    32  23  69 E18G25    29.99F WCI  20
PRINCE ALBERT  CLOUDY    30  19  64 E9        30.16F WCI  22
REGINA         PTSUNNY   34  21  60 SE22      30.08S WCI  22
YORKTON        CLOUDY    32  16  51 S13       30.18S W



USA.gov is the U.S. government's official web portal to all federal, state and local government web resources and services.